Year,Month,Day,Hour,Minute,Value (Times are PST for temperature in C)
2010,07,16,08,04,14.30
2010,07,16,08,05,14.30
2010,07,16,08,06,14.30
2010,07,16,08,07,14.30
2010,07,16,08,08,14.20
2010,07,16,08,09,14.20
2010,07,16,08,10,14.20
2010,07,16,08,11,14.20
2010,07,16,08,12,14.20
2010,07,16,08,13,14.20
2010,07,16,08,14,14.20
2010,07,16,08,15,14.30
2010,07,16,08,16,14.30
2010,07,16,08,17,14.40
2010,07,16,08,18,14.50
2010,07,16,08,19,14.60
2010,07,16,08,20,14.60
2010,07,16,08,21,14.70
2010,07,16,08,22,14.70
2010,07,16,08,23,14.80
2010,07,16,08,24,14.80
2010,07,16,08,25,14.90
2010,07,16,08,26,15.00
2010,07,16,08,27,15.10
2010,07,16,08,28,15.20
2010,07,16,08,29,15.20
2010,07,16,08,30,15.30
2010,07,16,08,31,15.30
2010,07,16,08,32,15.30
2010,07,16,08,33,15.40
2010,07,16,08,34,15.40
2010,07,16,08,35,15.50
2010,07,16,08,36,15.50
2010,07,16,08,37,15.60
2010,07,16,08,38,15.60
2010,07,16,08,39,15.50
2010,07,16,08,40,15.30
2010,07,16,08,41,15.30
2010,07,16,08,42,15.20
2010,07,16,08,43,15.20
2010,07,16,08,44,15.20
2010,07,16,08,45,15.20
2010,07,16,08,46,15.20
2010,07,16,08,47,15.20
2010,07,16,08,48,15.20
2010,07,16,08,49,15.20
2010,07,16,08,50,15.20
2010,07,16,08,51,15.30
2010,07,16,08,52,15.30
2010,07,16,08,53,15.30
2010,07,16,08,54,15.30
2010,07,16,08,55,15.20
2010,07,16,08,56,15.20
2010,07,16,08,57,15.20
2010,07,16,08,58,15.20
2010,07,16,08,59,15.20
2010,07,16,09,00,15.30
2010,07,16,09,01,15.30
2010,07,16,09,02,15.30
2010,07,16,09,03,15.30
2010,07,16,09,04,15.30
2010,07,16,09,05,15.30
2010,07,16,09,06,15.30
2010,07,16,09,07,15.30
2010,07,16,09,08,15.30
2010,07,16,09,09,15.30
2010,07,16,09,10,15.30
2010,07,16,09,11,15.30
2010,07,16,09,12,15.30
2010,07,16,09,13,15.40
2010,07,16,09,14,15.40
2010,07,16,09,15,15.40
2010,07,16,09,16,15.40
2010,07,16,09,17,15.50
2010,07,16,09,18,15.50
2010,07,16,09,19,15.40
2010,07,16,09,20,15.50
2010,07,16,09,21,15.50
2010,07,16,09,22,15.50
2010,07,16,09,23,15.60
2010,07,16,09,24,15.50
2010,07,16,09,25,15.50
2010,07,16,09,26,15.40
2010,07,16,09,27,15.40
2010,07,16,09,28,15.50
2010,07,16,09,29,15.50
2010,07,16,09,30,15.60
2010,07,16,09,31,15.60
2010,07,16,09,32,15.70
2010,07,16,09,33,15.70
2010,07,16,09,34,15.70
2010,07,16,09,35,15.70
2010,07,16,09,36,15.70
2010,07,16,09,37,15.70
2010,07,16,09,38,15.70
2010,07,16,09,39,15.70
2010,07,16,09,40,15.70
2010,07,16,09,41,15.80
2010,07,16,09,42,15.80
2010,07,16,09,43,15.80
2010,07,16,09,44,15.80
2010,07,16,09,45,15.80
2010,07,16,09,46,15.80
2010,07,16,09,47,15.80
2010,07,16,09,48,15.90
2010,07,16,09,49,15.90
2010,07,16,09,50,16.00
2010,07,16,09,51,16.10
2010,07,16,09,52,16.20
2010,07,16,09,53,16.30
2010,07,16,09,54,16.30
2010,07,16,09,55,16.30
2010,07,16,09,56,16.30
2010,07,16,09,57,16.40
2010,07,16,09,58,16.40
2010,07,16,09,59,16.40
2010,07,16,10,00,16.40
2010,07,16,10,01,16.40
2010,07,16,10,02,16.40
2010,07,16,10,03,16.20
2010,07,16,10,04,16.20
2010,07,16,10,05,16.30
2010,07,16,10,06,16.30
2010,07,16,10,07,16.30
2010,07,16,10,08,16.30
2010,07,16,10,09,16.40
2010,07,16,10,10,16.40
2010,07,16,10,11,16.40
2010,07,16,10,12,16.40
2010,07,16,10,13,16.40
2010,07,16,10,14,16.40
2010,07,16,10,15,16.40
2010,07,16,10,16,16.40
2010,07,16,10,17,16.30
2010,07,16,10,18,16.30
2010,07,16,10,19,16.40
2010,07,16,10,20,16.40
2010,07,16,10,21,16.40
2010,07,16,10,22,16.40
2010,07,16,10,23,16.40
2010,07,16,10,24,16.30
2010,07,16,10,25,16.30
2010,07,16,10,26,16.30
2010,07,16,10,27,16.30
2010,07,16,10,28,16.30
2010,07,16,10,29,16.30
2010,07,16,10,30,16.20
2010,07,16,10,31,16.20
2010,07,16,10,32,16.20
2010,07,16,10,33,16.30
2010,07,16,10,34,16.40
2010,07,16,10,35,16.50
2010,07,16,10,36,16.60
2010,07,16,10,37,16.60
2010,07,16,10,38,16.60
2010,07,16,10,39,16.70
2010,07,16,10,40,16.70
2010,07,16,10,41,16.60
2010,07,16,10,42,16.50
2010,07,16,10,43,16.40
2010,07,16,10,44,16.40
2010,07,16,10,45,16.40
2010,07,16,10,46,16.40
2010,07,16,10,47,16.40
2010,07,16,10,48,16.40
2010,07,16,10,49,16.30
2010,07,16,10,50,16.30
2010,07,16,10,51,16.20
2010,07,16,10,52,16.20
2010,07,16,10,53,16.30
2010,07,16,10,54,16.30
2010,07,16,10,55,16.30
2010,07,16,10,56,16.40
2010,07,16,10,57,16.30
2010,07,16,10,58,16.10
2010,07,16,10,59,16.10
2010,07,16,11,00,16.10
2010,07,16,11,01,16.10
2010,07,16,11,02,16.10
2010,07,16,11,03,16.10
2010,07,16,11,04,16.20
2010,07,16,11,05,16.30
2010,07,16,11,06,16.30
2010,07,16,11,07,16.40
2010,07,16,11,08,16.40
2010,07,16,11,09,16.40
2010,07,16,11,10,16.30
2010,07,16,11,11,16.20
2010,07,16,11,12,16.20
2010,07,16,11,13,16.20
2010,07,16,11,14,16.20
2010,07,16,11,15,16.30
2010,07,16,11,16,16.20
2010,07,16,11,17,16.20
2010,07,16,11,18,16.20
2010,07,16,11,19,16.20
2010,07,16,11,20,16.20
2010,07,16,11,21,16.20
2010,07,16,11,22,16.30
2010,07,16,11,23,16.40
2010,07,16,11,24,16.40
2010,07,16,11,25,16.40
2010,07,16,11,26,16.40
2010,07,16,11,27,16.40
2010,07,16,11,28,16.40
2010,07,16,11,29,16.40
2010,07,16,11,30,16.50
2010,07,16,11,31,16.60
2010,07,16,11,32,16.60
2010,07,16,11,33,16.60
2010,07,16,11,34,16.50
2010,07,16,11,35,16.40
2010,07,16,11,36,16.40
2010,07,16,11,37,16.40
2010,07,16,11,38,16.30
2010,07,16,11,39,16.30
2010,07,16,11,40,16.30
2010,07,16,11,41,16.30
2010,07,16,11,42,16.30
2010,07,16,11,43,16.40
2010,07,16,11,44,16.40
2010,07,16,11,45,16.40
2010,07,16,11,46,16.40
2010,07,16,11,47,16.30
2010,07,16,11,48,16.30
2010,07,16,11,49,16.40
2010,07,16,11,50,16.40
2010,07,16,11,51,16.40
2010,07,16,11,52,16.40
2010,07,16,11,53,16.40
2010,07,16,11,54,16.40
2010,07,16,11,55,16.40
2010,07,16,11,56,16.40
2010,07,16,11,57,16.40
2010,07,16,11,58,16.30
2010,07,16,11,59,16.30
2010,07,16,12,00,16.40
2010,07,16,12,01,16.40
2010,07,16,12,02,16.40
2010,07,16,12,03,16.50
2010,07,16,12,04,16.40
2010,07,16,12,05,16.50
2010,07,16,12,06,16.50
2010,07,16,12,07,16.30
2010,07,16,12,08,16.00
2010,07,16,12,09,15.80
2010,07,16,12,10,15.80
2010,07,16,12,11,15.70
2010,07,16,12,12,15.70
2010,07,16,12,13,15.70
2010,07,16,12,14,15.80
2010,07,16,12,15,16.00
2010,07,16,12,16,16.20
2010,07,16,12,17,16.40
2010,07,16,12,18,16.50
2010,07,16,12,19,16.70
2010,07,16,12,20,16.70
2010,07,16,12,21,16.70
2010,07,16,12,22,16.70
2010,07,16,12,23,16.70
2010,07,16,12,24,16.60
2010,07,16,12,25,16.60
2010,07,16,12,26,16.50
2010,07,16,12,27,16.40
2010,07,16,12,28,16.40
2010,07,16,12,29,16.40
2010,07,16,12,30,16.40
2010,07,16,12,31,16.40
2010,07,16,12,32,16.40
2010,07,16,12,33,16.60
2010,07,16,12,34,16.70
2010,07,16,12,35,16.80
2010,07,16,12,36,16.80
2010,07,16,12,37,16.70
2010,07,16,12,38,16.70
2010,07,16,12,39,16.50
2010,07,16,12,40,16.40
2010,07,16,12,41,16.30
2010,07,16,12,42,16.30
2010,07,16,12,43,16.20
2010,07,16,12,44,16.10
2010,07,16,12,45,16.10
2010,07,16,12,46,16.00
2010,07,16,12,47,16.00
2010,07,16,12,48,16.10
2010,07,16,12,49,16.10
2010,07,16,12,50,16.10
2010,07,16,12,51,16.10
2010,07,16,12,52,16.10
2010,07,16,12,53,16.20
2010,07,16,12,54,16.20
2010,07,16,12,55,16.20
2010,07,16,12,56,16.40
2010,07,16,12,57,16.40
2010,07,16,12,58,16.40
2010,07,16,12,59,16.40
2010,07,16,13,00,16.30
2010,07,16,13,01,16.20
2010,07,16,13,02,16.20
2010,07,16,13,03,16.10
2010,07,16,13,04,16.10
2010,07,16,13,05,16.10
2010,07,16,13,06,16.20
2010,07,16,13,07,16.20
2010,07,16,13,08,16.30
2010,07,16,13,09,16.30
2010,07,16,13,10,16.40
2010,07,16,13,11,16.40
2010,07,16,13,12,16.50
2010,07,16,13,13,16.60
2010,07,16,13,14,16.70
2010,07,16,13,15,16.70
2010,07,16,13,16,16.70
2010,07,16,13,17,16.80
2010,07,16,13,18,16.80
2010,07,16,13,19,16.70
2010,07,16,13,20,16.60
2010,07,16,13,21,16.60
2010,07,16,13,22,16.50
2010,07,16,13,23,16.30
2010,07,16,13,24,16.30
2010,07,16,13,25,16.30
2010,07,16,13,26,16.20
2010,07,16,13,27,16.10
2010,07,16,13,28,16.10
2010,07,16,13,29,16.10
2010,07,16,13,30,16.10
2010,07,16,13,31,16.10
2010,07,16,13,32,16.10
2010,07,16,13,33,16.20
2010,07,16,13,34,16.30
2010,07,16,13,35,16.40
2010,07,16,13,36,16.30
2010,07,16,13,37,16.20
2010,07,16,13,38,16.10
2010,07,16,13,39,16.10
2010,07,16,13,40,16.10
2010,07,16,13,41,16.20
2010,07,16,13,42,16.30
2010,07,16,13,43,16.40
2010,07,16,13,44,16.50
2010,07,16,13,45,16.70
2010,07,16,13,46,16.90
2010,07,16,13,47,17.00
2010,07,16,13,48,17.10
2010,07,16,13,49,17.20
2010,07,16,13,50,17.20
2010,07,16,13,51,17.10
2010,07,16,13,52,17.00
2010,07,16,13,53,17.00
2010,07,16,13,54,17.00
2010,07,16,13,55,16.90
2010,07,16,13,56,17.00
2010,07,16,13,57,17.00
2010,07,16,13,58,16.90
2010,07,16,13,59,16.90
2010,07,16,14,00,16.90
2010,07,16,14,01,16.90
2010,07,16,14,02,16.90
2010,07,16,14,03,16.90
2010,07,16,14,04,16.90
2010,07,16,14,05,16.90
2010,07,16,14,06,16.90
2010,07,16,14,07,17.00
2010,07,16,14,08,17.00
2010,07,16,14,09,17.10
2010,07,16,14,10,17.20
2010,07,16,14,11,17.20
2010,07,16,14,12,17.20
2010,07,16,14,13,17.30
2010,07,16,14,14,17.30
2010,07,16,14,15,17.30
2010,07,16,14,16,17.30
2010,07,16,14,17,17.20
2010,07,16,14,18,17.10
2010,07,16,14,19,17.10
2010,07,16,14,20,16.90
2010,07,16,14,21,16.90
2010,07,16,14,22,16.80
2010,07,16,14,23,16.70
2010,07,16,14,24,16.70
2010,07,16,14,25,16.70
2010,07,16,14,26,16.80
2010,07,16,14,27,16.90
2010,07,16,14,28,16.90
2010,07,16,14,29,16.90
2010,07,16,14,30,16.90
2010,07,16,14,31,17.00
2010,07,16,14,32,16.90
2010,07,16,14,33,16.70
2010,07,16,14,34,16.60
2010,07,16,14,35,16.40
2010,07,16,14,36,16.40
2010,07,16,14,37,16.50
2010,07,16,14,38,16.40
2010,07,16,14,39,16.40
2010,07,16,14,40,16.20
2010,07,16,14,41,16.10
2010,07,16,14,42,16.10
2010,07,16,14,43,16.10
2010,07,16,14,44,16.10
2010,07,16,14,45,16.10
2010,07,16,14,46,16.10
2010,07,16,14,47,16.10
2010,07,16,14,48,16.10
2010,07,16,14,49,16.10
2010,07,16,14,50,16.10
2010,07,16,14,51,16.10
2010,07,16,14,52,16.10
2010,07,16,14,53,16.10
2010,07,16,14,54,16.00
2010,07,16,14,55,15.80
2010,07,16,14,56,15.70
2010,07,16,14,57,15.60
2010,07,16,14,58,15.50
2010,07,16,14,59,15.40
2010,07,16,15,00,15.30
2010,07,16,15,01,15.30
2010,07,16,15,02,15.50
2010,07,16,15,03,15.60
2010,07,16,15,04,15.80
2010,07,16,15,05,15.80
2010,07,16,15,06,15.80
2010,07,16,15,07,15.80
2010,07,16,15,08,15.80
2010,07,16,15,09,15.80
2010,07,16,15,10,15.80
2010,07,16,15,11,15.90
2010,07,16,15,12,16.00
2010,07,16,15,13,16.10
2010,07,16,15,14,16.20
2010,07,16,15,15,16.40
2010,07,16,15,16,16.50
2010,07,16,15,17,16.60
2010,07,16,15,18,16.70
2010,07,16,15,19,16.60
2010,07,16,15,20,16.40
2010,07,16,15,21,16.40
2010,07,16,15,22,16.50
2010,07,16,15,23,16.70
2010,07,16,15,24,16.70
2010,07,16,15,25,16.80
2010,07,16,15,26,16.80
2010,07,16,15,27,16.90
2010,07,16,15,28,16.90
2010,07,16,15,29,16.90
2010,07,16,15,30,17.00
2010,07,16,15,31,17.00
2010,07,16,15,32,17.20
2010,07,16,15,33,17.30
2010,07,16,15,34,17.40
2010,07,16,15,35,17.50
2010,07,16,15,36,17.50
2010,07,16,15,37,17.50
2010,07,16,15,38,17.50
2010,07,16,15,39,17.60
2010,07,16,15,40,17.60
2010,07,16,15,41,17.60
2010,07,16,15,42,17.50
2010,07,16,15,43,17.40
2010,07,16,15,44,17.30
2010,07,16,15,45,17.40
2010,07,16,15,46,17.40
2010,07,16,15,47,17.40
2010,07,16,15,48,17.30
2010,07,16,15,49,17.30
2010,07,16,15,50,17.30
2010,07,16,15,51,17.20
2010,07,16,15,52,17.20
2010,07,16,15,53,17.20
2010,07,16,15,54,17.30
2010,07,16,15,55,17.30
2010,07,16,15,56,17.30
2010,07,16,15,57,17.30
2010,07,16,15,58,17.40
2010,07,16,15,59,17.50
2010,07,16,16,00,17.50
2010,07,16,16,01,17.50
2010,07,16,16,02,17.50
2010,07,16,16,03,17.60
2010,07,16,16,04,17.60
2010,07,16,16,05,17.60
2010,07,16,16,06,17.60
2010,07,16,16,07,17.60
2010,07,16,16,08,17.70
2010,07,16,16,09,17.80
2010,07,16,16,10,17.80
2010,07,16,16,11,17.80
2010,07,16,16,12,17.80
2010,07,16,16,13,17.70
2010,07,16,16,14,17.70
2010,07,16,16,15,17.70
2010,07,16,16,16,17.60
2010,07,16,16,17,17.60
2010,07,16,16,18,17.60
2010,07,16,16,19,17.70
2010,07,16,16,20,17.70
2010,07,16,16,21,17.80
2010,07,16,16,22,17.70
2010,07,16,16,23,17.70
2010,07,16,16,24,17.70
2010,07,16,16,25,17.60
2010,07,16,16,26,17.50
2010,07,16,16,27,17.50
2010,07,16,16,28,17.50
2010,07,16,16,29,17.50
2010,07,16,16,30,17.60
2010,07,16,16,31,17.70
2010,07,16,16,32,17.80
2010,07,16,16,33,17.70
2010,07,16,16,34,17.60
2010,07,16,16,35,17.60
2010,07,16,16,36,17.70
2010,07,16,16,37,17.80
2010,07,16,16,38,17.90
2010,07,16,16,39,17.90
2010,07,16,16,40,18.00
2010,07,16,16,41,18.10
2010,07,16,16,42,18.20
2010,07,16,16,43,18.20
2010,07,16,16,44,18.40
2010,07,16,16,45,18.40
2010,07,16,16,46,18.50
2010,07,16,16,47,18.50
2010,07,16,16,48,18.60
2010,07,16,16,49,18.60
2010,07,16,16,50,18.70
2010,07,16,16,51,18.70
2010,07,16,16,52,18.60
2010,07,16,16,53,18.60
2010,07,16,16,54,18.60
2010,07,16,16,55,18.60
2010,07,16,16,56,18.60
2010,07,16,16,57,18.60
2010,07,16,16,58,18.70
2010,07,16,16,59,18.70
2010,07,16,17,00,18.60
2010,07,16,17,01,18.50
2010,07,16,17,02,18.50
2010,07,16,17,03,18.60
2010,07,16,17,04,18.60
2010,07,16,17,05,18.50
2010,07,16,17,06,18.40
2010,07,16,17,07,18.30
2010,07,16,17,08,18.30
2010,07,16,17,09,18.30
2010,07,16,17,10,18.30
2010,07,16,17,11,18.30
2010,07,16,17,12,18.40
2010,07,16,17,13,18.40
2010,07,16,17,14,18.40
2010,07,16,17,15,18.30
2010,07,16,17,16,18.20
2010,07,16,17,17,18.10
2010,07,16,17,18,17.90
2010,07,16,17,19,17.90
2010,07,16,17,20,17.90
2010,07,16,17,21,17.90
2010,07,16,17,22,17.80
2010,07,16,17,23,17.70
2010,07,16,17,24,17.70
2010,07,16,17,25,17.60
2010,07,16,17,26,17.50
2010,07,16,17,27,17.40
2010,07,16,17,28,17.40
2010,07,16,17,29,17.40
2010,07,16,17,30,17.40
2010,07,16,17,31,17.40
2010,07,16,17,32,17.40
2010,07,16,17,33,17.40
2010,07,16,17,34,17.40
2010,07,16,17,35,17.40
2010,07,16,17,36,17.30
2010,07,16,17,37,17.30
2010,07,16,17,38,17.30
2010,07,16,17,39,17.20
2010,07,16,17,40,17.20
2010,07,16,17,41,17.20
2010,07,16,17,42,17.10
2010,07,16,17,43,17.10
2010,07,16,17,44,17.00
2010,07,16,17,45,17.00
2010,07,16,17,46,16.90
2010,07,16,17,47,16.90
2010,07,16,17,48,16.80
2010,07,16,17,49,16.70
2010,07,16,17,50,16.70
2010,07,16,17,51,16.60
2010,07,16,17,52,16.60
2010,07,16,17,53,16.60
2010,07,16,17,54,16.60
2010,07,16,17,55,16.60
2010,07,16,17,56,16.50
2010,07,16,17,57,16.30
2010,07,16,17,58,16.20
2010,07,16,17,59,16.00
2010,07,16,18,00,15.90
2010,07,16,18,01,15.80
2010,07,16,18,02,15.80
2010,07,16,18,03,15.70
2010,07,16,18,04,15.70
2010,07,16,18,05,15.70
2010,07,16,18,06,15.70
2010,07,16,18,07,15.80
2010,07,16,18,08,15.80
2010,07,16,18,09,15.80
2010,07,16,18,10,15.80
2010,07,16,18,11,15.80
2010,07,16,18,12,15.90
2010,07,16,18,13,16.00
2010,07,16,18,14,16.10
2010,07,16,18,15,16.10
2010,07,16,18,16,16.00
2010,07,16,18,17,15.80
2010,07,16,18,18,15.80
2010,07,16,18,19,15.70
2010,07,16,18,20,15.80
2010,07,16,18,21,15.80
2010,07,16,18,22,15.80
2010,07,16,18,23,15.70
2010,07,16,18,24,15.60
2010,07,16,18,25,15.60
2010,07,16,18,26,15.60
2010,07,16,18,27,15.60
2010,07,16,18,28,15.60
2010,07,16,18,29,15.60
2010,07,16,18,30,15.60
2010,07,16,18,31,15.60
2010,07,16,18,32,15.50
2010,07,16,18,33,15.40
2010,07,16,18,34,15.50
2010,07,16,18,35,15.50
2010,07,16,18,36,15.50
2010,07,16,18,37,15.60
2010,07,16,18,38,15.70
2010,07,16,18,39,15.80
2010,07,16,18,40,15.80
2010,07,16,18,41,15.90
2010,07,16,18,42,15.90
2010,07,16,18,43,15.80
2010,07,16,18,44,15.70
2010,07,16,18,45,15.70
2010,07,16,18,46,15.70
2010,07,16,18,47,15.60
2010,07,16,18,48,15.60
2010,07,16,18,49,15.50
2010,07,16,18,50,15.30
2010,07,16,18,51,15.20
2010,07,16,18,52,15.10
2010,07,16,18,53,15.10
2010,07,16,18,54,15.10
2010,07,16,18,55,15.10
2010,07,16,18,56,15.10
2010,07,16,18,57,15.10
2010,07,16,18,58,15.10
2010,07,16,18,59,15.10
2010,07,16,19,00,15.10
2010,07,16,19,01,15.10
2010,07,16,19,02,15.10
2010,07,16,19,03,15.20
2010,07,16,19,04,15.10
2010,07,16,19,05,15.10
2010,07,16,19,06,15.10
2010,07,16,19,07,15.10
2010,07,16,19,08,15.20
2010,07,16,19,09,15.20
2010,07,16,19,10,15.20
2010,07,16,19,11,15.30
2010,07,16,19,12,15.30
2010,07,16,19,13,15.50
2010,07,16,19,14,15.50
2010,07,16,19,15,15.60
2010,07,16,19,16,15.70
2010,07,16,19,17,15.70
2010,07,16,19,18,15.80
2010,07,16,19,19,15.80
2010,07,16,19,20,15.90
2010,07,16,19,21,16.00
2010,07,16,19,22,16.10
2010,07,16,19,23,16.20
2010,07,16,19,24,16.30
2010,07,16,19,25,16.40
2010,07,16,19,26,16.50
2010,07,16,19,27,16.60
2010,07,16,19,28,16.70
2010,07,16,19,29,16.70
2010,07,16,19,30,16.70
2010,07,16,19,31,16.70
2010,07,16,19,32,16.80
2010,07,16,19,33,16.90
2010,07,16,19,34,16.90
2010,07,16,19,35,17.00
2010,07,16,19,36,17.00
2010,07,16,19,37,17.00
2010,07,16,19,38,17.10
2010,07,16,19,39,17.10
2010,07,16,19,40,17.20
2010,07,16,19,41,17.10
2010,07,16,19,42,17.10
2010,07,16,19,43,17.10
2010,07,16,19,44,17.10
2010,07,16,19,45,17.20
2010,07,16,19,46,17.20
2010,07,16,19,47,17.20
2010,07,16,19,48,17.30
2010,07,16,19,49,17.30
2010,07,16,19,50,17.30
2010,07,16,19,51,17.30
2010,07,16,19,52,17.30
2010,07,16,19,53,17.40
2010,07,16,19,54,17.40
2010,07,16,19,55,17.40
2010,07,16,19,56,17.40
2010,07,16,19,57,17.30
2010,07,16,19,58,17.30
2010,07,16,19,59,17.30
2010,07,16,20,00,17.30
2010,07,16,20,01,17.30
2010,07,16,20,02,17.30
2010,07,16,20,03,17.30
2010,07,16,20,04,17.30
2010,07,16,20,05,17.30
2010,07,16,20,06,17.30
2010,07,16,20,07,17.30
2010,07,16,20,08,17.30
2010,07,16,20,09,17.30
2010,07,16,20,10,17.30
2010,07,16,20,11,17.30
2010,07,16,20,12,17.30
2010,07,16,20,13,17.30
2010,07,16,20,14,17.30
2010,07,16,20,15,17.30
2010,07,16,20,16,17.30
2010,07,16,20,17,17.30
2010,07,16,20,18,17.30
2010,07,16,20,19,17.30
2010,07,16,20,20,17.30
2010,07,16,20,21,17.20
2010,07,16,20,22,17.20
2010,07,16,20,23,17.20
2010,07,16,20,24,17.10
2010,07,16,20,25,17.10
2010,07,16,20,26,17.00
2010,07,16,20,27,17.00
2010,07,16,20,28,17.00
2010,07,16,20,29,17.00
2010,07,16,20,30,16.90
2010,07,16,20,31,16.90
2010,07,16,20,32,16.70
2010,07,16,20,33,16.60
2010,07,16,20,34,16.40
2010,07,16,20,35,16.30
2010,07,16,20,36,16.20
2010,07,16,20,37,16.10
2010,07,16,20,38,16.10
2010,07,16,20,39,16.00
2010,07,16,20,40,15.90
2010,07,16,20,41,15.90
2010,07,16,20,42,15.80
2010,07,16,20,43,15.80
2010,07,16,20,44,15.90
2010,07,16,20,45,15.90
2010,07,16,20,46,15.90
2010,07,16,20,47,15.90
2010,07,16,20,48,15.90
2010,07,16,20,49,15.90
2010,07,16,20,50,15.90
2010,07,16,20,51,15.90
2010,07,16,20,52,15.90
2010,07,16,20,53,15.90
2010,07,16,20,54,15.90
2010,07,16,20,55,15.90
2010,07,16,20,56,15.90
